Date,TemperatureHighF,TemperatureAvgF,TemperatureLowF,DewpointHighF,DewpointAvgF,DewpointLowF,HumidityHigh,HumidityAvg,HumidityLow,PressureMaxIn,PressureMinIn,WindSpeedMaxMPH,WindSpeedAvgMPH,GustSpeedMaxMPH,PrecipitationSumIn
2014-1-1,15.6,4.4,-5.1,0.6,-11.3,-20.7,55,47,45,30.33,30.00,9,2,10,0.00
2014-1-2,6.6,-0.6,-5.7,-9.9,-16.5,-21.2,46,46,46,30.30,29.88,9,2,12,0.00
2014-1-3,4.2,-7.8,-18.3,-12.0,-23.1,-32.8,46,46,46,30.30,29.83,10,3,16,0.00
2014-1-4,15.0,-0.5,-18.3,0.9,-16.1,-32.8,54,47,44,30.33,30.06,7,1,8,0.00
2014-1-5,31.9,21.3,8.9,30.1,11.2,-4.8,93,66,41,30.21,29.88,6,1,8,0.00
2014-1-6,49.0,34.3,18.8,48.0,29.7,6.1,98,84,52,29.88,29.26,13,4,15,0.79
2014-1-7,18.8,6.3,0.1,7.1,-4.5,-10.2,65,61,53,29.94,29.38,17,6,24,0.00
2014-1-8,17.7,5.7,0.1,1.8,-8.1,-14.7,61,53,44,30.33,29.91,11,3,15,0.00
2014-1-9,20.6,8.7,1.2,3.3,-8.2,-14.8,61,45,40,30.50,30.27,10,2,13,0.00
2014-1-10,26.0,15.8,3.7,21.7,3.5,-13.4,84,59,44,30.48,30.18,6,1,8,0.00
2014-1-11,49.0,37.1,26.0,48.5,35.5,20.7,98,94,80,30.18,29.18,10,1,17,0.75
2014-1-12,45.4,34.8,30.9,44.9,27.4,17.3,98,75,56,29.88,29.20,13,5,17,0.00
2014-1-13,40.8,33.6,23.8,24.9,20.8,17.5,86,60,41,30.00,29.80,5,0,8,0.00
2014-1-14,40.9,37.4,33.0,38.0,32.6,23.7,98,84,51,29.83,29.68,0,0,0,0.70
2014-1-15,41.8,32.1,26.0,33.1,28.8,24.8,100,88,54,29.94,29.77,3,0,7,0.00
2014-1-16,33.9,28.2,26.5,30.5,23.8,20.9,92,84,77,29.94,29.85,5,1,7,0.00
2014-1-17,36.4,28.2,20.2,29.0,22.3,16.4,96,80,52,29.91,29.80,6,1,9,0.00
2014-1-18,40.8,26.4,18.8,25.5,17.5,12.5,97,72,40,29.88,29.62,5,1,6,0.05
2014-1-19,30.1,23.8,20.1,23.8,17.8,11.8,88,78,62,29.68,29.38,13,2,14,0.00
2014-1-20,26.2,15.4,-5.3,20.7,7.4,-14.7,89,71,52,29.83,29.38,8,3,13,0.00
2014-1-21,9.6,-3.6,-14.1,-0.5,-13.0,-23.1,63,63,63,30.00,29.83,8,2,10,0.00
2014-1-22,10.3,-5.8,-14.5,0.2,-15.2,-23.5,63,63,63,29.94,29.68,8,3,12,0.00
2014-1-23,12.9,-4.6,-16.1,2.6,-14.0,-25.0,63,63,63,30.09,29.85,6,2,10,0.00
2014-1-24,10.5,-4.1,-14.5,0.4,-13.5,-23.5,63,63,63,30.12,29.80,7,2,10,0.00
2014-1-25,21.7,14.1,3.3,14.1,4.0,-6.5,83,65,43,29.80,29.24,7,2,15,0.00
2014-1-26,16.1,4.1,-6.4,12.0,-2.1,-12.5,85,75,70,29.74,29.24,13,3,22,0.00
2014-1-27,29.6,14.5,0.6,23.7,1.9,-19.6,85,59,36,29.88,29.38,10,3,20,0.00
2014-1-28,16.3,0.6,-8.6,-7.2,-20.1,-27.9,37,36,34,30.12,29.65,8,2,14,0.00
2014-1-29,18.6,6.3,-5.7,-5.8,-16.2,-26.9,36,34,33,30.09,29.80,6,3,13,0.00
2014-1-30,25.1,12.0,1.5,3.2,-8.2,-20.4,51,39,34,30.27,29.97,5,2,10,0.00
2014-1-31,36.4,23.6,14.7,12.6,4.8,-2.4,72,45,34,30.09,29.85,8,3,12,0.00
2014-2-1,37.5,25.8,13.8,29.1,16.2,9.0,96,69,40,30.27,29.88,6,2,11,0.00
2014-2-2,35.0,31.1,22.9,31.3,27.2,14.9,97,85,69,30.06,29.80,5,2,12,0.00
2014-2-3,31.6,19.5,7.5,16.8,10.2,-0.9,87,68,45,30.27,30.09,4,1,8,0.00
2014-2-4,29.4,13.3,1.0,11.7,1.5,-7.1,79,60,40,30.36,30.21,5,1,8,0.00
2014-2-5,22.6,16.0,9.8,13.6,9.5,3.2,82,75,60,30.27,29.74,4,2,10,0.00
2014-2-6,20.6,6.4,-7.5,6.3,-5.7,-13.6,74,59,42,30.36,29.91,5,2,9,0.00
2014-2-7,24.0,10.0,-1.5,5.0,-5.8,-17.3,60,48,43,30.09,29.97,6,2,10,0.00
2014-2-8,25.1,9.8,2.2,4.7,-6.2,-12.6,52,48,40,30.15,30.03,6,2,11,0.00
2014-2-9,28.0,14.2,5.3,7.0,-2.0,-11.5,70,49,36,30.09,29.85,5,1,8,0.00
2014-2-10,23.7,10.9,0.6,6.4,-1.0,-11.8,72,59,42,30.09,29.85,6,2,12,0.00
2014-2-11,17.7,3.2,-8.2,0.0,-12.5,-25.7,55,48,41,30.36,30.09,7,2,14,0.00
2014-2-12,28.5,5.4,-10.9,3.5,-14.7,-28.1,45,38,32,30.44,30.27,4,2,7,0.04
2014-2-13,26.7,17.7,6.4,25.8,5.3,-14.4,97,60,37,30.30,29.26,9,2,18,0.00
2014-2-14,28.9,23.4,17.4,27.4,17.1,9.9,100,77,57,29.65,28.94,10,5,20,0.00
2014-2-15,35.2,24.4,15.4,20.4,16.2,10.9,86,72,51,29.80,29.62,9,2,17,0.00
2014-2-16,20.6,12.3,-0.8,12.9,-1.3,-17.1,75,55,43,29.94,29.62,11,4,20,0.00
2014-2-17,19.3,4.4,-4.1,-4.4,-15.1,-24.9,45,39,33,30.30,29.94,8,3,12,0.00
2014-2-18,28.7,11.4,-6.2,16.6,-4.7,-26.8,80,50,35,30.24,29.91,6,1,13,0.00
2014-2-19,36.4,25.3,11.1,25.6,18.9,5.7,90,77,47,30.00,29.71,3,1,6,0.00
2014-2-20,45.1,34.0,26.2,27.8,21.4,14.7,92,63,34,30.12,29.83,8,2,15,0.21
2014-2-21,37.1,32.9,29.5,32.4,29.4,26.9,100,87,69,30.12,29.68,9,2,17,0.70
2014-2-22,44.7,34.4,27.2,30.8,20.0,3.2,100,59,32,29.85,29.71,9,3,17,0.13
2014-2-23,47.3,32.5,21.8,17.6,9.1,1.4,51,38,28,29.91,29.74,8,3,15,0.00
2014-2-24,28.9,21.8,10.2,32.0,7.7,-2.2,58,45,36,29.85,29.68,9,4,15,0.00
2014-2-25,21.7,9.6,-0.1,32.0,11.9,-7.6,75,55,40,29.88,29.77,7,3,15,0.00
2014-2-26,23.8,5.0,-5.9,12.9,-3.8,-15.9,81,66,58,29.85,29.68,7,2,20,0.00
2014-2-27,24.0,8.6,-5.7,10.1,-1.5,-15.7,75,63,54,29.80,29.50,5,2,15,0.00
2014-2-28,19.5,0.9,-4.8,6.7,-6.5,-16.5,74,71,56,30.33,29.74,6,4,17,0.00
2014-3-1,29.0,13.0,-6.1,14.6,0.3,-17.9,72,56,51,30.33,29.97,5,2,12,0.00
2014-3-2,32.6,19.4,-0.9,20.9,13.3,-6.3,100,78,54,30.12,29.94,5,3,13,0.00
2014-3-3,18.2,2.7,-7.9,5.9,-6.6,-19.4,77,65,54,30.21,29.97,7,3,15,0.00
2014-3-4,23.4,5.3,-11.7,5.0,-10.2,-23.0,57,49,29,30.24,30.15,5,2,10,0.00
2014-3-5,25.2,11.4,-1.8,13.5,-2.4,-10.7,70,54,36,30.48,30.18,6,2,12,0.00
2014-3-6,33.4,12.1,-9.6,12.2,-2.3,-18.2,65,53,37,30.56,30.39,4,2,8,0.00
2014-3-7,45.9,22.5,2.5,17.6,0.3,-11.2,64,40,20,30.56,29.91,5,2,11,0.00
2014-3-8,44.1,24.8,12.0,21.0,8.7,-0.3,60,50,37,29.91,29.74,7,2,13,0.00
2014-3-9,32.5,14.1,6.1,16.4,2.5,-5.9,100,60,51,29.94,29.83,7,2,15,0.00
2014-3-10,38.5,21.3,14.9,28.2,15.5,8.5,100,79,57,29.83,29.56,3,0,8,0.00
2014-3-11,39.5,32.1,23.9,33.1,26.8,20.4,100,82,58,29.71,29.44,6,3,14,0.08
2014-3-12,33.6,25.8,15.2,30.3,24.3,13.2,100,94,84,29.77,29.24,7,3,15,0.00
2014-3-13,15.0,8.7,3.4,13.4,0.7,-11.1,93,72,49,29.83,29.24,10,6,19,0.00
2014-3-14,29.9,13.6,-4.8,15.5,-1.4,-18.8,74,51,35,30.03,29.71,5,2,12,0.00
2014-3-15,47.7,31.8,21.8,34.2,23.6,14.3,100,74,44,30.00,29.59,7,3,14,0.25
2014-3-16,21.8,10.8,-3.7,21.8,1.9,-17.0,100,68,49,30.15,29.62,9,6,19,0.00
2014-3-17,28.0,7.7,-8.7,8.4,-8.3,-21.6,57,47,39,30.15,29.97,6,2,12,0.00
2014-3-18,42.3,16.5,-4.2,18.3,-0.8,-21.1,64,47,31,30.30,30.09,4,2,9,0.00
2014-3-19,57.6,26.0,12.6,25.3,9.5,2.1,88,53,24,30.30,29.94,4,1,8,0.00
2014-3-20,35.8,31.7,27.9,32.3,27.5,23.1,91,84,67,29.94,29.56,7,2,14,0.00
2014-3-21,28.8,26.6,19.8,24.3,14.3,5.6,87,60,48,29.97,29.65,10,4,16,0.00
2014-3-22,32.2,24.1,14.5,32.2,19.1,3.9,100,82,54,30.00,29.62,12,3,27,0.00
2014-3-23,26.4,18.9,2.5,25.9,10.1,-11.2,100,70,49,30.09,29.85,11,4,19,0.00
2014-3-24,27.3,10.3,-2.0,8.9,-4.5,-15.5,55,51,43,30.18,29.97,11,3,16,0.00
2014-3-25,32.7,15.7,1.2,14.2,2.1,-12.7,66,55,46,30.06,29.91,9,2,13,0.00
2014-3-26,26.4,19.6,12.9,19.8,10.4,3.7,100,68,49,29.97,29.71,11,5,26,0.00
2014-3-27,36.1,21.5,8.1,14.2,6.6,-1.0,66,53,40,30.21,29.97,11,4,15,0.04
2014-3-28,37.2,32.5,27.7,37.2,29.6,12.0,100,90,48,30.12,29.85,5,2,13,0.41
2014-3-29,44.3,36.7,32.1,36.7,28.3,22.6,98,74,46,30.27,30.00,7,2,10,0.04
2014-3-30,35.9,31.7,29.7,32.3,29.7,24.6,98,92,70,30.09,29.77,7,3,17,0.46
2014-3-31,33.8,29.0,24.6,25.3,21.8,19.0,87,75,63,30.15,29.74,10,2,19,0.00
2014-4-1,52.5,35.9,22.6,23.0,18.8,15.3,77,52,29,30.15,30.00,7,3,13,0.00
2014-4-2,51.6,40.6,30.7,27.4,20.2,12.0,58,44,33,30.06,29.97,7,2,11,0.00
2014-4-3,39.5,32.9,25.9,28.0,19.2,14.2,71,57,44,30.18,30.03,9,3,12,0.00
2014-4-4,48.0,31.9,20.1,32.4,22.2,12.6,100,69,30,30.18,29.85,12,3,22,0.04
2014-4-5,35.0,31.5,28.0,34.9,27.6,13.7,100,87,54,29.88,29.65,7,1,12,0.12
2014-4-6,44.0,33.0,25.7,18.1,13.2,10.4,72,45,29,30.18,29.85,10,4,19,0.00
2014-4-7,54.8,41.1,29.8,37.8,24.5,12.0,100,53,40,30.21,29.94,8,2,13,0.00
2014-4-8,52.3,42.0,34.1,49.4,41.7,34.1,100,99,87,29.94,29.29,11,3,26,0.17
2014-4-9,39.2,33.1,24.8,35.0,19.9,3.6,100,63,31,29.94,29.50,10,4,17,0.00
2014-4-10,54.8,39.0,21.9,21.5,14.4,4.4,50,37,27,30.06,29.85,10,3,15,0.00
2014-4-11,55.7,46.9,37.9,30.7,24.4,20.8,63,42,30,30.06,29.85,10,3,14,0.00
2014-4-12,55.7,42.8,30.9,27.7,24.0,21.6,72,49,31,30.24,30.03,9,2,25,0.00
2014-4-13,49.4,39.6,35.4,44.4,34.6,23.5,100,83,55,30.27,29.97,6,1,11,0.25
2014-4-14,69.8,54.2,35.9,52.6,43.0,35.9,100,69,35,30.03,29.74,10,3,20,0.00
2014-4-15,60.8,50.3,26.8,59.0,49.6,26.8,100,98,74,29.85,29.50,8,2,23,0.83
2014-4-16,30.7,21.4,15.6,26.8,13.2,8.5,100,72,47,30.59,29.85,10,1,13,0.08
2014-4-17,43.3,28.1,13.3,22.5,16.0,9.9,89,63,43,30.74,30.56,7,2,10,0.04
2014-4-18,48.4,34.9,22.4,25.0,18.8,15.3,75,54,33,30.59,30.18,8,2,11,0.00
2014-4-19,43.7,36.2,29.5,36.8,27.0,18.5,100,70,50,30.44,30.12,10,3,17,0.00
2014-4-20,56.8,40.2,25.3,24.5,18.4,12.9,71,44,23,30.48,30.24,7,2,9,0.00
2014-4-21,69.1,51.6,37.4,37.9,27.5,15.8,50,40,30,30.24,29.83,7,2,12,0.00
2014-4-22,70.9,53.6,46.2,51.9,39.5,30.3,100,64,30,29.83,29.50,7,1,13,0.17
2014-4-23,47.5,39.4,33.6,47.5,36.3,27.4,100,89,71,29.74,29.50,10,4,17,0.04
2014-4-24,44.2,36.6,30.2,29.0,22.3,17.6,83,57,42,29.97,29.68,11,5,21,0.00
2014-4-25,61.9,44.7,26.4,32.1,26.6,20.5,100,54,29,30.00,29.85,8,2,11,0.00
2014-4-26,43.9,39.9,35.0,42.2,34.0,21.6,100,83,43,29.85,29.74,6,1,9,0.17
2014-4-27,48.0,38.8,34.0,44.0,36.8,34.0,100,93,66,30.09,29.85,8,2,12,0.04
2014-4-28,54.1,41.7,32.9,40.1,36.4,32.9,100,83,55,30.27,29.83,8,3,12,0.00
2014-4-29,60.2,44.4,31.1,38.3,32.5,27.8,100,68,36,30.48,30.21,9,3,13,0.00
2014-4-30,50.9,39.8,33.8,39.5,34.7,29.7,100,84,55,30.53,30.15,8,2,12,0.29
2014-5-1,67.3,48.5,35.8,55.8,46.3,35.8,100,93,60,30.15,29.68,8,1,12,0.54
2014-5-2,58.4,49.0,33.6,49.3,39.9,33.3,100,73,51,29.85,29.68,8,3,13,0.00
2014-5-3,63.5,48.7,37.6,47.6,40.7,34.8,100,76,48,29.88,29.74,8,2,11,0.08
2014-5-4,50.5,42.9,38.6,48.1,41.8,38.6,100,96,74,29.77,29.50,9,2,13,0.45
2014-5-5,54.1,43.0,36.8,45.1,41.4,36.8,100,95,62,29.91,29.68,9,4,15,0.00
2014-5-6,55.2,42.8,33.8,39.5,34.3,29.0,100,75,44,30.09,29.85,9,3,13,0.00
2014-5-7,62.9,47.3,30.0,38.9,32.7,24.2,100,62,33,30.21,30.06,7,3,13,0.00
2014-5-8,68.9,51.3,31.3,37.9,30.4,21.8,100,50,26,30.27,30.12,8,2,13,0.00
2014-5-9,53.2,47.6,38.6,48.3,34.2,21.0,100,62,37,30.27,30.03,5,1,7,0.00
2014-5-10,76.4,60.7,47.8,67.7,51.1,32.4,100,76,33,30.09,29.74,9,3,13,0.34
2014-5-11,68.9,57.5,47.6,43.1,36.9,31.0,67,48,30,30.06,29.80,12,4,20,0.00
2014-5-12,75.9,59.4,41.7,41.9,37.4,32.9,82,47,29,30.18,30.03,11,3,17,0.00
2014-5-13,67.3,53.2,45.5,50.5,41.4,32.4,86,65,48,30.30,30.15,6,2,9,0.00
2014-5-14,77.5,58.2,44.9,52.3,45.5,38.5,100,66,41,30.30,30.15,6,1,10,0.00
2014-5-15,75.9,61.7,47.8,63.9,56.9,46.1,100,85,60,30.30,30.15,8,2,15,0.00
2014-5-16,73.0,64.6,57.7,62.9,58.6,48.2,100,84,46,30.18,29.97,11,4,24,0.00
2014-5-17,67.3,57.7,45.3,62.2,51.4,37.4,100,82,47,30.15,29.85,8,2,11,1.74
2014-5-18,68.7,52.7,39.9,43.8,36.3,26.1,100,59,32,30.21,30.09,9,3,12,0.00
2014-5-19,52.7,44.2,34.9,48.9,39.9,27.1,100,86,53,30.18,30.06,7,2,12,0.17
2014-5-20,68.7,54.6,37.9,49.1,42.5,35.4,100,68,34,30.12,30.03,8,2,18,0.00
2014-5-21,75.9,58.8,42.6,53.3,46.4,40.1,100,68,33,30.06,29.91,6,1,8,0.00
2014-5-22,71.4,55.2,48.0,57.2,51.8,47.8,100,90,48,29.97,29.85,8,1,10,0.91
2014-5-23,61.7,53.3,48.5,60.7,53.2,48.5,100,100,90,30.00,29.88,4,0,6,0.08
2014-5-24,72.7,57.1,45.3,61.6,52.6,45.3,100,87,50,30.09,30.00,7,1,10,0.30
2014-5-25,78.1,59.4,44.4,60.2,49.0,39.8,100,74,32,30.12,29.97,7,2,11,0.04
2014-5-26,70.1,58.7,51.1,65.8,56.9,50.9,100,94,69,30.00,29.83,8,2,12,0.29
2014-5-27,59.5,53.4,45.7,59.3,53.4,45.7,100,100,100,30.00,29.85,10,1,10,0.95
2014-5-28,62.2,47.5,41.0,53.4,45.8,41.0,100,95,60,30.24,29.97,5,1,8,0.08
2014-5-29,72.1,52.7,35.4,53.8,42.2,35.4,100,74,33,30.30,30.09,8,1,10,0.00
2014-5-30,69.4,53.6,43.1,59.3,49.1,42.6,100,87,51,30.15,30.03,6,1,8,0.29
2014-5-31,71.4,55.2,43.5,56.5,47.8,40.1,100,80,34,30.39,30.12,6,2,10,0.00
2014-6-1,77.5,59.6,40.3,53.6,46.7,40.3,100,69,33,30.44,30.21,6,2,8,0.00
2014-6-2,84.9,66.0,49.4,54.3,49.4,43.3,95,60,29,30.21,29.97,6,2,10,0.00
2014-6-3,83.1,67.1,52.1,60.1,51.7,38.7,100,63,33,30.06,29.85,8,2,16,0.00
2014-6-4,76.3,62.2,54.1,64.2,56.9,44.8,100,85,48,29.91,29.74,6,1,9,0.00
2014-6-5,76.3,56.5,46.9,62.6,53.6,46.9,100,92,43,29.85,29.71,5,1,8,0.09
2014-6-6,67.1,57.3,50.9,56.8,53.1,50.6,100,87,58,29.94,29.77,6,3,11,0.00
2014-6-7,80.6,64.7,48.0,59.9,52.5,47.7,100,69,37,30.03,29.91,7,2,12,0.00
2014-6-8,80.2,68.4,55.9,62.2,54.9,49.1,100,66,37,30.03,29.88,5,1,9,0.00
2014-6-9,79.2,69.1,59.9,65.6,58.6,51.8,100,72,43,30.03,29.91,5,1,8,0.00
2014-6-10,69.3,63.7,55.0,63.9,59.9,55.0,100,88,71,30.18,29.97,6,1,10,0.00
2014-6-11,73.8,60.4,49.5,59.6,52.4,42.5,100,80,33,30.24,30.15,8,2,14,0.04
2014-6-12,56.3,53.7,50.7,56.3,53.6,50.7,100,100,93,30.21,30.09,5,1,8,0.87
2014-6-13,62.6,57.7,54.7,62.6,57.7,54.7,100,100,100,30.09,29.85,6,1,9,0.74
2014-6-14,63.5,57.3,54.0,62.1,56.5,53.0,100,97,74,30.03,29.85,6,1,8,0.09
2014-6-15,65.5,57.1,51.4,59.2,52.3,45.8,100,86,55,30.15,29.97,7,2,10,0.00
2014-6-16,73.6,61.3,47.1,55.5,48.9,45.1,100,67,37,30.21,30.06,6,1,9,0.00
2014-6-17,78.2,70.0,58.1,63.3,56.6,49.9,97,64,43,30.09,29.83,5,1,7,0.00
2014-6-18,70.2,64.5,60.0,66.0,62.7,58.5,100,94,71,30.00,29.68,7,3,13,0.37
2014-6-19,67.5,62.6,53.7,60.1,47.8,39.4,100,62,37,30.06,29.97,9,3,15,0.00
2014-6-20,59.6,53.6,45.8,46.6,41.9,37.6,97,66,48,30.06,29.97,8,2,15,0.00
2014-6-21,62.9,53.0,42.0,52.3,44.3,41.7,100,75,48,30.06,29.97,7,2,12,0.00
2014-6-22,70.1,58.1,44.5,53.3,48.9,44.5,100,74,47,30.09,29.97,6,1,8,0.00
2014-6-23,73.6,62.3,49.3,56.6,51.5,45.1,100,72,37,30.21,30.09,6,1,11,0.00
2014-6-24,69.8,64.2,56.5,67.2,60.1,52.4,100,87,68,30.12,29.94,5,1,8,0.00
2014-6-25,75.0,66.1,0.0,68.4,65.0,59.8,100,95,72,29.97,29.88,6,1,10,0.95
2014-6-26,77.4,64.2,56.8,65.8,60.1,53.4,100,87,61,30.09,29.85,4,2,10,0.26
2014-6-27,76.6,64.9,52.3,60.9,50.7,45.4,98,65,36,30.24,30.09,5,2,13,0.00
2014-6-28,79.2,67.4,54.7,57.8,51.3,47.0,85,59,34,30.33,30.21,3,1,8,0.00
2014-6-29,80.2,68.6,58.1,59.3,52.3,48.2,79,58,34,30.33,30.06,3,1,8,0.00
2014-6-30,80.2,73.5,62.8,69.5,65.0,58.0,92,75,63,30.09,29.88,3,2,8,0.00
2014-7-1,84.7,75.5,65.1,72.2,68.0,63.8,97,79,56,29.94,29.74,4,2,12,0.00
2014-7-2,85.8,74.2,66.7,72.7,68.1,64.2,97,83,50,29.97,29.77,6,2,14,0.12
2014-7-3,83.5,72.4,64.6,70.4,65.9,61.0,98,82,48,30.03,29.85,6,1,15,0.54
2014-7-4,68.7,63.6,55.9,65.2,61.4,53.2,98,93,80,30.06,29.91,5,2,10,0.16
2014-7-5,71.4,62.0,54.5,54.6,47.1,38.5,96,60,44,30.06,29.91,6,4,17,0.05
2014-7-6,76.5,67.1,57.4,55.2,51.0,47.5,78,57,41,30.00,29.85,6,2,13,0.00
2014-7-7,75.0,65.2,58.1,66.2,58.4,48.7,98,79,57,29.88,29.71,4,2,10,0.45
2014-7-8,79.2,71.4,65.4,68.1,65.3,60.7,98,83,59,29.83,29.62,5,2,13,0.08
2014-7-9,74.6,67.7,62.0,65.4,59.2,51.6,98,76,47,29.97,29.65,5,3,15,0.17
2014-7-10,68.6,62.1,54.8,59.9,49.3,43.1,93,65,42,30.24,29.97,4,2,11,0.00
2014-7-11,72.2,61.2,49.9,53.2,48.7,44.2,87,65,43,30.33,30.21,4,1,8,0.00
2014-7-12,76.9,65.7,53.1,60.4,54.5,48.7,89,69,47,30.30,30.09,4,1,9,0.00
2014-7-13,75.6,68.4,62.9,67.7,64.3,59.6,98,87,70,30.12,29.85,4,2,11,0.12
2014-7-14,76.9,67.3,60.7,67.3,62.1,55.6,98,84,52,29.94,29.85,4,1,13,0.38
2014-7-15,75.1,69.9,61.2,68.9,66.3,59.7,98,89,75,29.91,29.74,3,1,7,0.08
2014-7-16,68.8,64.0,58.5,65.9,61.2,54.8,98,91,71,29.94,29.77,4,1,9,0.46
2014-7-17,68.3,60.5,53.5,57.3,52.6,48.2,97,77,50,30.12,29.94,3,1,9,0.00
2014-7-18,72.7,61.7,49.2,55.9,50.9,47.4,96,70,44,30.33,30.12,4,1,9,0.00
2014-7-19,74.5,64.1,53.4,58.6,53.8,49.8,93,71,45,30.39,30.24,2,0,5,0.00
2014-7-20,73.8,65.8,57.9,60.1,54.4,48.7,93,69,43,30.27,30.15,4,1,13,0.00
2014-7-21,77.7,66.7,55.9,60.7,56.8,53.6,95,73,47,30.24,30.12,3,1,8,0.00
2014-7-22,90.3,73.0,61.2,69.8,62.9,57.6,92,73,41,30.18,29.97,3,1,8,0.00
2014-7-23,89.4,71.3,63.0,73.2,66.2,60.3,98,86,54,29.97,29.74,6,2,13,0.62
2014-7-24,79.9,64.0,52.7,62.3,53.5,45.4,98,72,40,30.00,29.80,6,2,12,0.04
2014-7-25,72.1,61.3,49.6,57.8,52.9,47.7,96,76,49,30.06,29.91,4,1,9,0.00
2014-7-26,73.8,64.8,56.8,60.6,54.9,49.5,93,72,45,30.00,29.85,4,2,10,0.00
2014-7-27,70.7,62.3,57.2,64.9,59.5,54.3,98,91,77,29.94,29.68,4,1,10,0.62
2014-7-28,67.5,62.3,57.9,66.9,61.7,56.7,98,98,95,29.77,29.53,6,1,12,0.96
2014-7-29,65.5,57.2,52.3,57.3,51.4,48.4,97,82,56,30.03,29.62,4,1,11,0.00
2014-7-30,69.6,55.5,50.2,56.8,50.5,45.8,97,85,44,30.09,30.00,3,0,8,0.00
2014-7-31,66.9,59.5,53.4,60.9,55.9,50.3,97,88,72,30.18,30.09,3,1,8,0.00
2014-8-1,75.9,65.6,55.6,63.0,58.3,54.3,98,79,49,30.27,30.15,4,1,8,0.00
2014-8-2,76.6,68.1,61.0,66.3,61.3,56.8,98,80,56,30.27,30.09,3,1,8,0.00
2014-8-3,76.1,66.6,58.3,65.2,60.6,56.4,96,82,56,30.18,30.03,4,1,6,0.00
2014-8-4,74.1,66.8,0.0,64.3,61.2,56.1,96,82,66,30.12,30.03,4,1,10,0.00
2014-8-5,77.7,66.4,59.0,64.6,60.9,56.8,98,83,56,30.09,29.94,3,1,9,0.00
2014-8-6,70.3,63.5,55.9,63.1,56.6,46.3,98,80,47,29.97,29.85,5,1,11,0.00
2014-8-7,64.4,57.3,53.2,57.2,54.0,49.0,98,89,71,30.03,29.91,4,1,10,0.20
2014-8-8,71.6,61.5,50.5,61.8,55.1,49.8,98,81,54,30.12,30.00,4,2,11,0.00
2014-8-9,74.7,66.9,55.6,61.7,55.5,51.4,95,69,46,30.18,30.09,4,2,9,0.00
2014-8-10,79.9,65.3,55.0,63.1,57.4,51.9,94,77,49,30.21,30.12,3,1,6,0.00
2014-8-11,88.5,68.5,54.1,65.8,57.3,51.5,98,71,40,30.21,30.09,3,1,6,0.00
2014-8-12,76.1,68.0,60.1,64.7,59.7,56.3,95,76,53,30.15,30.03,4,2,11,0.00
2014-8-13,65.3,60.9,56.5,60.3,57.3,55.6,98,88,78,30.06,29.74,7,3,17,0.79
2014-8-14,63.5,57.1,51.3,56.3,52.5,47.0,98,86,56,29.94,29.74,4,2,10,0.00
2014-8-15,64.2,55.9,48.6,52.6,49.4,45.5,96,80,53,29.94,29.88,4,1,10,0.00
2014-8-16,64.6,57.7,53.2,56.2,53.7,47.7,98,87,59,29.97,29.91,4,1,9,0.04
2014-8-17,62.2,57.7,54.5,58.5,55.3,53.0,98,92,75,29.94,29.85,5,2,11,0.17
2014-8-18,61.2,56.5,50.7,56.3,51.1,45.7,98,83,60,29.97,29.85,4,2,13,0.20
2014-8-19,69.6,58.2,48.2,58.2,52.1,47.1,98,81,55,30.03,29.94,4,1,7,0.00
2014-8-20,80.1,63.2,51.3,61.6,55.0,49.9,96,77,44,30.12,30.00,3,1,6,0.00
2014-8-21,78.8,63.6,56.5,65.0,58.0,54.4,98,83,52,30.15,30.09,3,1,8,0.13
2014-8-22,68.5,61.5,54.3,62.4,57.9,53.1,98,88,72,30.21,30.12,2,0,5,0.00
2014-8-23,78.4,64.8,53.1,62.8,55.7,50.2,98,76,42,30.24,30.15,4,1,9,2.63
2014-8-24,84.0,66.7,52.5,63.2,56.9,52.0,98,75,38,30.27,30.15,3,1,9,0.00
2014-8-25,86.7,67.8,55.2,67.4,59.1,53.3,98,76,44,30.24,30.15,4,1,8,0.00
2014-8-26,80.1,67.5,54.8,63.3,57.2,52.4,98,72,44,30.21,30.03,4,2,11,0.00
2014-8-27,78.4,69.6,62.8,64.8,59.4,55.3,84,71,48,30.03,29.88,4,2,9,0.00
2014-8-28,64.2,58.6,51.1,56.7,49.4,41.8,94,73,48,30.09,29.91,5,2,15,0.00
2014-8-29,77.5,61.5,48.5,56.9,50.9,45.7,94,72,39,30.24,30.06,4,1,9,0.00
2014-8-30,76.5,63.3,52.9,57.9,54.8,51.1,98,77,45,30.30,30.09,5,2,14,0.00
2014-8-31,71.4,66.1,0.0,68.4,64.6,57.1,98,93,82,30.12,28.41,4,2,11,0.00
2014-9-1,85.8,70.7,62.2,71.2,65.5,60.8,98,85,49,29.91,29.62,4,1,9,0.33
2014-9-2,85.5,73.0,60.6,70.8,66.2,59.9,98,81,57,29.88,29.65,5,2,15,0.34
2014-9-3,82.8,65.1,54.7,65.2,57.6,49.9,98,79,42,30.03,29.65,4,2,12,0.04
2014-9-4,81.0,64.4,50.9,61.3,55.9,50.0,98,78,43,30.12,30.00,4,1,10,0.00
2014-9-5,84.2,71.5,59.5,68.9,63.7,58.6,98,79,47,30.06,29.83,5,2,13,0.00
2014-9-6,77.0,66.9,56.8,70.7,64.0,56.3,98,91,71,29.88,29.68,6,2,15,0.12
2014-9-7,74.1,58.6,46.4,56.6,49.4,44.3,98,75,42,30.15,29.85,4,1,12,0.00
2014-9-8,77.5,59.5,45.0,56.7,50.5,44.2,98,76,38,30.33,30.15,3,1,6,0.00
2014-9-9,73.8,57.7,46.2,56.3,46.5,40.6,98,71,35,30.33,30.12,4,1,9,0.00
2014-9-10,76.5,59.0,42.8,56.9,50.3,41.2,97,76,43,30.15,29.91,5,1,8,0.00
2014-9-11,65.7,32.8,0.0,65.1,57.4,48.7,98,93,83,29.94,29.65,6,2,14,0.21
2014-9-12,56.1,48.5,39.4,48.7,40.5,36.6,92,74,55,30.24,29.88,4,2,10,0.00
2014-9-13,52.9,46.1,37.8,49.1,42.7,36.6,98,88,67,30.24,30.00,4,1,8,0.13
2014-9-14,50.2,44.3,36.1,49.1,38.9,33.9,98,82,65,30.21,30.03,5,2,13,0.00
2014-9-15,64.4,46.0,30.0,43.3,38.2,29.0,98,77,43,30.18,30.00,4,1,10,0.00
2014-9-16,57.7,49.7,44.1,54.5,47.4,43.1,98,92,76,30.18,29.88,4,1,8,0.12
2014-9-17,67.8,50.6,39.9,53.2,44.7,39.2,98,83,42,30.00,29.85,4,1,11,0.00
2014-9-18,57.9,47.1,35.4,52.4,41.6,30.2,97,82,57,30.12,29.85,4,2,9,0.00
2014-9-19,59.9,42.2,28.2,33.5,28.8,23.8,88,63,28,30.36,30.12,4,2,7,0.00
2014-9-20,56.3,37.9,35.1,50.5,34.0,29.6,91,86,78,30.27,30.09,4,1,12,0.00
2014-9-21,74.7,74.7,74.7,58.9,58.9,58.9,58,58,58,29.74,29.74,3,3,7,0.00
2014-9-22,57.6,49.0,43.0,47.2,39.3,32.8,79,69,62,30.00,29.62,7,3,17,0.21
2014-9-23,62.1,49.3,38.3,48.6,41.7,34.2,97,76,53,30.36,30.00,4,2,13,0.00
2014-9-24,70.3,53.4,43.0,57.2,46.5,42.5,98,81,42,30.53,30.36,4,1,11,0.00
2014-9-25,72.0,54.4,42.4,56.1,48.4,41.9,98,83,48,30.48,30.18,4,1,9,0.00
2014-9-26,75.9,57.2,42.6,58.1,51.8,42.1,98,84,50,30.24,30.09,4,1,7,0.00
2014-9-27,82.8,63.0,50.2,61.9,55.7,49.6,98,80,43,30.18,30.09,4,1,8,0.00
2014-9-28,83.1,65.0,52.2,64.2,57.8,51.6,98,81,42,30.15,29.91,3,1,9,0.00
2014-9-29,75.2,62.9,54.7,62.2,55.8,53.0,97,79,50,30.12,29.88,3,1,8,0.00
2014-9-30,73.8,58.2,52.3,57.6,53.2,50.6,98,85,51,30.00,29.88,3,1,8,0.00
2014-10-1,64.4,56.0,50.9,55.1,51.9,49.1,98,87,63,30.09,30.00,3,1,7,0.00
2014-10-2,73.4,57.2,49.3,55.3,49.6,44.7,98,78,43,30.15,30.00,4,1,10,0.00
2014-10-3,74.5,56.2,44.2,47.9,43.2,36.7,91,65,36,30.12,29.83,4,1,8,0.00
2014-10-4,60.6,54.3,46.8,55.6,51.3,45.7,98,90,71,29.83,29.50,6,2,18,0.99
2014-10-5,61.7,47.4,37.9,54.7,39.3,30.2,98,77,40,29.88,29.53,6,2,13,0.04
2014-10-6,63.7,46.9,34.2,44.8,36.4,32.7,97,71,35,30.03,29.88,6,2,17,0.00
2014-10-7,67.3,54.6,0.0,60.4,50.3,40.8,98,85,62,30.03,29.88,6,2,14,0.25
2014-10-8,63.0,54.6,47.3,55.4,48.8,32.8,98,83,46,29.97,29.59,7,3,23,0.50
2014-10-9,54.0,44.6,34.9,39.4,32.7,28.3,97,65,44,29.88,29.74,7,3,14,0.04
2014-10-10,55.9,43.3,33.3,37.6,33.6,29.9,96,71,46,30.06,24.57,5,2,11,0.00
2014-10-11,56.1,43.0,36.1,43.1,34.7,30.7,95,75,47,30.12,29.97,4,1,8,0.00
2014-10-12,58.3,41.7,32.2,41.3,32.5,27.7,98,73,38,30.21,30.03,4,1,8,0.00
2014-10-13,59.2,46.4,31.1,46.9,36.8,26.8,90,71,43,30.24,30.15,4,1,11,0.00
2014-10-14,75.0,61.6,50.9,58.8,54.1,46.6,93,78,54,30.15,30.00,6,2,15,0.00
2014-10-15,77.7,66.1,57.7,63.6,59.3,56.1,98,80,53,30.06,29.91,5,2,13,0.00
2014-10-16,71.4,64.6,61.7,66.3,62.1,58.9,98,92,75,29.94,29.59,5,1,13,1.33
2014-10-17,64.8,56.9,52.5,60.6,52.4,45.4,98,86,58,29.62,29.50,6,2,12,0.20
2014-10-18,56.3,49.8,43.0,54.4,48.1,41.3,98,94,83,29.56,29.44,6,2,12,0.00
2014-10-19,42.8,37.9,34.7,41.2,33.1,23.4,95,84,55,29.85,29.56,6,3,12,0.00
2014-10-20,51.6,39.4,32.2,31.1,25.3,18.3,76,57,43,29.94,29.83,5,2,14,0.00
2014-10-21,46.6,41.9,36.1,44.7,39.1,29.2,98,90,75,30.03,29.88,4,1,9,2.20
2014-10-22,54.0,45.5,42.3,45.4,41.9,36.0,98,88,61,30.09,29.97,6,2,13,0.17
2014-10-23,47.8,45.5,43.7,46.4,43.5,41.9,97,93,86,30.00,29.74,6,3,17,0.66
2014-10-24,44.2,42.1,40.5,43.2,40.9,37.6,98,95,90,30.09,29.68,4,2,10,0.24
2014-10-25,59.4,44.6,31.6,46.0,37.7,31.1,98,80,42,29.77,29.41,4,1,9,0.38
2014-10-26,51.1,42.2,39.9,45.3,38.1,34.9,98,86,67,29.74,29.35,7,3,15,0.12
2014-10-27,46.0,40.2,35.2,38.2,36.4,33.2,97,86,72,29.97,29.59,7,4,18,0.00
2014-10-28,52.2,42.8,36.3,47.8,41.2,35.0,98,94,77,30.00,29.71,3,0,5,0.04
2014-10-29,52.5,47.0,37.6,51.8,43.2,30.6,98,88,56,29.85,29.71,6,2,11,0.05
2014-10-30,49.8,40.1,34.2,39.3,33.1,26.8,94,77,56,29.91,29.77,5,2,11,0.00
2014-10-31,50.2,40.1,33.4,35.5,28.3,23.9,85,64,45,30.00,29.91,4,1,9,0.00
2014-11-1,39.0,35.1,32.4,34.9,29.1,24.3,91,79,63,29.97,29.85,6,3,13,0.04
2014-11-2,33.6,31.1,27.0,26.9,18.8,8.4,79,61,43,29.91,29.71,9,6,24,0.00
2014-11-3,45.0,31.9,23.9,19.5,11.4,-7.1,67,44,14,29.97,29.77,8,4,21,0.00
2014-11-4,47.7,40.4,28.6,35.2,28.9,19.4,74,64,52,30.03,29.85,3,0,4,0.00
2014-11-5,57.7,48.2,40.3,41.3,30.5,24.1,67,51,37,30.00,29.83,6,3,15,0.00
2014-11-6,50.7,40.6,35.4,36.5,31.9,26.3,96,72,51,30.00,29.56,3,1,8,0.21
2014-11-7,35.4,32.5,27.9,34.1,29.7,20.3,98,90,74,29.71,29.47,7,4,16,0.24
2014-11-8,37.0,29.9,25.3,23.3,18.7,15.0,74,63,49,29.88,29.68,7,2,13,0.00
2014-11-9,43.2,34.4,27.1,28.3,25.2,21.7,89,70,54,29.91,29.74,5,2,12,0.00
2014-11-10,49.8,37.3,27.3,32.6,28.5,24.1,90,72,48,30.12,29.88,6,2,13,0.00
2014-11-11,60.6,44.7,0.0,42.4,35.1,27.8,97,71,44,30.09,29.88,6,2,12,0.00
2014-11-12,51.6,43.1,32.5,48.8,39.2,23.8,97,86,70,29.94,29.77,7,2,18,0.09
2014-11-13,38.1,31.6,25.2,24.9,20.0,17.0,86,63,50,29.97,29.85,4,1,10,0.00
2014-11-14,37.6,27.5,21.7,30.7,19.6,11.9,91,73,50,30.00,29.80,6,2,13,0.00
2014-11-15,33.1,22.3,15.6,16.1,11.0,5.9,81,63,42,30.18,29.94,6,2,15,0.00
2014-11-16,32.9,27.0,16.2,25.3,16.8,9.2,82,66,55,30.18,29.83,5,2,14,0.00
2014-11-17,33.8,31.3,27.9,33.3,27.3,17.1,98,86,57,30.06,29.35,3,0,6,0.04
2014-11-18,34.3,24.9,15.4,33.8,13.6,-0.8,98,63,46,29.65,29.35,7,3,16,0.00
2014-11-19,34.0,19.5,11.8,16.3,7.3,-0.1,86,60,42,29.91,29.62,7,3,17,0.00
2014-11-20,36.1,22.4,12.6,21.2,10.5,0.9,81,60,46,29.88,29.59,7,3,17,0.00
2014-11-21,26.4,16.2,7.7,12.3,3.3,-7.9,79,57,46,30.21,29.71,9,4,16,0.00
2014-11-22,34.5,28.8,10.6,22.8,12.5,-1.8,65,51,40,30.21,29.74,7,3,15,0.04
2014-11-23,42.4,36.2,34.5,40.4,32.0,22.8,98,85,62,30.03,29.85,4,2,9,0.04
2014-11-24,57.9,49.2,36.5,56.3,47.6,36.0,98,94,82,29.97,29.41,7,2,19,0.46
2014-11-25,54.1,44.3,32.7,52.0,31.0,19.2,98,62,42,29.97,29.53,6,3,14,0.00
2014-11-26,37.0,30.2,26.2,25.2,20.9,16.0,90,70,53,30.12,29.77,6,2,12,0.00
2014-11-27,29.3,23.8,20.7,23.8,17.5,14.5,91,77,62,29.94,29.74,5,3,13,0.00
2014-11-28,27.9,19.4,9.5,18.7,12.2,2.9,85,74,55,30.03,29.88,5,1,12,0.00
2014-11-29,30.6,15.8,5.5,16.7,7.9,1.2,84,72,45,30.15,30.03,4,1,10,0.00
2014-11-30,40.1,32.0,20.3,39.6,27.7,15.3,98,84,72,30.03,29.83,4,1,12,0.29
2014-12-1,44.6,34.9,23.2,43.5,29.4,10.6,98,81,57,30.36,29.83,6,3,15,0.04
2014-12-2,30.2,21.1,9.1,21.4,7.3,-3.0,90,56,42,30.56,30.27,7,3,17,0.00
2014-12-3,38.1,32.2,23.2,36.2,30.4,20.7,98,93,70,30.27,29.71,8,3,20,0.16
2014-12-4,29.3,21.2,5.4,22.7,6.0,-11.0,82,52,37,30.48,29.88,10,4,23,0.00
2014-12-5,32.4,17.9,4.5,22.4,3.2,-11.8,86,53,39,30.53,30.30,4,1,8,0.00
2014-12-6,34.3,30.6,25.3,32.0,28.4,20.9,97,92,84,30.30,30.03,3,1,6,0.00
2014-12-7,25.3,13.1,-2.9,20.6,0.5,-19.0,84,58,43,30.59,30.21,4,2,9,0.00
2014-12-8,21.4,7.3,-4.9,11.7,-7.4,-20.9,81,51,43,30.59,30.36,4,1,8,0.00
2014-12-9,33.3,29.2,16.9,32.8,26.7,12.3,98,91,81,30.39,29.68,5,2,16,0.00
2014-12-10,34.2,33.3,32.4,33.5,32.5,31.4,98,97,90,29.71,29.38,7,3,18,0.09
2014-12-11,37.8,30.7,27.3,35.6,29.2,25.6,98,94,91,29.68,29.38,0,0,0,0.29
2014-12-12,33.6,27.0,23.5,27.9,23.7,20.5,94,88,71,29.83,29.65,0,0,0,0.00
2014-12-13,28.4,25.2,0.0,24.1,22.1,20.3,92,87,78,29.83,29.71,0,0,0,0.00
2014-12-14,32.4,27.6,24.3,28.6,24.6,22.0,93,89,81,29.88,29.71,0,0,0,0.00
2014-12-15,29.5,25.1,22.5,24.5,21.5,19.7,92,86,74,30.03,29.88,0,0,0,0.00
2014-12-16,34.3,28.3,22.6,30.7,25.7,21.1,96,90,76,30.06,29.88,0,0,0,0.00
2014-12-17,36.9,33.6,32.0,36.3,33.1,30.7,98,98,95,29.88,29.65,0,0,0,0.62
2014-12-18,32.5,28.7,24.8,32.0,26.5,22.2,98,91,80,29.83,29.65,0,0,0,0.00
2014-12-19,24.8,20.9,10.9,22.3,16.8,6.5,91,84,73,30.09,29.77,0,0,0,0.00
2014-12-20,35.4,16.5,6.1,20.9,10.2,1.8,90,77,49,30.21,30.06,0,0,6,0.04
2014-12-21,29.1,20.4,11.3,21.2,16.3,7.4,91,84,69,30.24,30.15,0,0,0,0.00
2014-12-22,34.5,27.5,21.7,27.2,23.5,19.3,92,85,68,30.27,30.18,1,0,4,0.00
2014-12-23,36.9,32.4,26.1,34.6,30.8,23.5,98,94,87,30.21,30.06,2,0,4,0.13
2014-12-24,39.2,36.4,33.4,38.7,35.9,32.9,98,98,97,30.21,29.47,2,0,5,0.91
2014-12-25,47.3,39.8,35.2,46.6,32.4,20.4,98,76,54,29.80,29.32,9,4,25,0.08
2014-12-26,40.3,34.7,28.8,27.4,23.3,20.3,86,64,53,30.03,29.80,9,4,27,0.00
2014-12-27,38.5,35.7,32.0,33.6,28.1,26.2,87,74,63,30.09,29.80,7,0,10,0.00
2014-12-28,38.8,35.2,26.1,38.3,28.8,9.9,98,79,48,29.97,29.65,10,2,20,0.17
2014-12-29,27.1,20.8,10.8,15.9,4.4,-6.0,67,49,37,30.09,29.85,10,3,17,0.00
2014-12-30,18.7,8.9,2.8,-0.2,-10.1,-18.1,51,41,36,30.18,30.06,8,2,10,0.00
2014-12-31,20.1,7.9,0.0,19.9,-7.8,-20.7,100,50,36,30.15,29.83,9,2,15,0.00
2015-1-1,23.0,18.0,11.3,7.9,2.2,-4.2,56,49,47,29.85,29.65,11,4,17,0.00
2015-1-2,22.8,17.0,5.2,17.6,5.2,-9.0,87,60,48,30.27,29.71,10,4,17,0.00